Regional Weather Roundup
Issued by NWS

Home | Current Version | Previous Version | Graphics & Text | Print | Product List | Glossary On
Versions: 1 2 3 4 5 6 7 8 9 10 11 12 13 14 15 16 17 18 19 20 21 22 23 24 25 26 27 28 29 30 31 32 33 34 35 36 37 38 39 40 41 42 43 44 45 46 47 48 49 50
000
ASUS43 KFSD 230302
RWRSD

WEATHER ROUNDUP FOR SOUTH DAKOTA
NATIONAL WEATHER SERVICE SIOUX FALLS SD
1000 PM CDT MON SEP 22 2014

NOTE: "FAIR" INDICATES FEW OR NO CLOUDS BELOW 12,000 FEET WITH NO
SIGNIFICANT WEATHER AND/OR OBSTRUCTIONS TO VISIBILITY.


SDZ001>005-009-010-012>017-230400-
NORTHWEST AND NORTH CENTRAL SOUTH DAKOTA

CITY           SKY/WX    TMP DP  RH WIND       PRES   REMARKS
FAITH            N/A     63  53  70 SE15      29.91S
MOBRIDGE       CLEAR     68  52  56 S17G25    29.94S
$$

SDZ012>016-024>037-041>051-057-063-072>074-230400-
SOUTHWEST AND SOUTH CENTRAL SOUTH DAKOTA

CITY           SKY/WX    TMP DP  RH WIND       PRES   REMARKS
RAPID CTY ARPT CLOUDY    62  56  80 SE6       29.95R
PIERRE         MOCLDY    65  52  62 SE17      29.98F
CUSTER         CLOUDY    54  51  90 CALM      30.09R
ELLSWORTH AFB  CLOUDY    65  56  73 S7        29.94R
PHILIP         CLOUDY    67  51  56 S17G23    29.95R
PINE RIDGE     CLOUDY    65  54  67 S18G24    30.00F
WINNER         FAIR      65  52  62 S17G28    30.05S
$$

SDZ004>011-016>023-039-040-230400-
NORTHEAST SOUTH DAKOTA

CITY           SKY/WX    TMP DP  RH WIND       PRES   REMARKS
ABERDEEN       CLEAR     63  49  60 S14       30.04F
WATERTOWN      CLEAR     58  48  69 S8        30.11R
SISSETON         N/A     55  50  83 S8        30.07S
$$

SDZ017-020-022-023-036>040-048>070-230400-
SOUTHEAST SOUTH DAKOTA

CITY           SKY/WX    TMP DP  RH WIND       PRES   REMARKS
SIOUX FALLS    MOCLDY    63  50  62 S12       30.15R
HURON          PTCLDY    65  49  56 S12       30.07S
CHAMBERLAIN    CLOUDY    64  52  65 SE9       30.06S
MITCHELL       MOCLDY    65  51  60 SE10      30.09F
YANKTON        PTCLDY    63  50  63 SE10      30.14R
$$

ABBREVIATIONS USED IN REMARKS
   TC - TEMPERATURE IN CELSIUS
  WCI - WIND CHILL INDEX
   HX - HEAT INDEX
  VSB - VISIBILITY



USA.gov is the U.S. government's official web portal to all federal, state and local government web resources and services.